User: anonymous   Login
Location: Petruro
(41.0333°N, 14.7833°E)
Time: 00:25:43
(UTC+00:00)
Language:

Cosmos 1656 - Orbit

View from above orbital plane
View from above orbital plane
View from above satellite
View from above satellite

Ground track
Ground track

The orbit data is extracted from the following two-line orbital elements,

1 15755U 85042A   21262.46771578 -.00000139  00000-0 -42407-4 0  9996
2 15755  71.1132 326.3559 0034472 158.8696 201.3864 14.20470321881270
Epoch (UTC): 19 September 2021 11:13:30
Eccentricity: 0.0034472
inclination: 71.1132°
perigee height: 799 km
apogee height: 848 km
right ascension of ascending node: 326.3559°
argument of perigee: 158.8696°
revolutions per day: 14.20470321
mean anomaly at epoch: 201.3864°
orbit number at epoch: 88127

The dashed part of the orbit path shows where the satellite is in the earth's shadow,  

DLR